Location: Long Geng
(2.6167°N, 114.1333°E)
Time: 19:09:38
(UTC+00:00)

Cosmos 1953 Rocket - Pass Details

Date: 14 May 2021
Orbit: 604 x 634 km, 82.5° (Epoch: 16 June)

Event Time Altitude Azimuth Distance (km) Brightness Sun altitude
Rises 20:59:16 0° 175° (S) 2,907 6.8 -18.1°
Reaches altitude 10° 21:01:33 10° 170° (S) 1,994 6.0 -17.6°
Maximum altitude 21:05:51 52° 94° (E) 769 4.4 -16.6°
Drops below altitude 10° 21:10:05 10° 17° (NNE) 1,969 6.6 -15.6°
Sets 21:12:20 0° 12° (NNE) 2,866 7.5 -15.1°
